Weather History for Omaha Millard, NE

Change the Weather History Date:

Tuesday, November 19, 2013

  Actual Average (KOMA) Record (KOMA)
Temperature  
Mean Temperature 46 °F 37 °F  
Max Temperature 61 °F 47 °F 73 °F (2007)
Min Temperature 32 °F 27 °F 1 °F (1914)
Degree Days  
Heating Degree Days 18 28  
Month to date heating degree days 441  
Since 1 July heating degree days 926  
Cooling Degree Days 0 0  
Month to date cooling degree days 0  
Year to date cooling degree days 1112  
Moisture  
Dew Point 26 °F    
Average Humidity 47    
Maximum Humidity 73    
Minimum Humidity 26    
Precipitation  
Precipitation 0.00 in 0.05 in 1.88 in (1953)
Month to date precipitation 1.10  
Year to date precipitation 29.04  
Snow  
Snow 0.00 in 0.10 in - ()
Month to date snowfall 1.0  
Since 1 July snowfall 1.3  
Snow Depth -    
Sea Level Pressure  
Sea Level Pressure 30.01 in    
Wind  
Wind Speed 8 mph (SSE)    
Max Wind Speed 25 mph    
Max Gust Speed 33 mph    
Visibility 10 miles    
Events      
T = Trace of Precipitation, MM = Missing Value Source: NWS Daily Summary

Daily Weather History Graph

Daily Weather History Graph

Search for Another Location

Airport:

Trip Planner

Search our weather history database for the weather conditions in past years. The results will help you decide how hot, cold, wet, or windy it might be!

Date:

Astronomy

Nov. 19, 2013 Rise Set
Actual Time 7:17 AM CST 5:02 PM CST
Civil Twilight 6:47 AM CST 5:31 PM CST
Nautical Twilight 6:13 AM CST 6:05 PM CST
Astronomical Twilight 5:41 AM CST 6:38 PM CST
Moon 6:53 PM CST (11/19) 8:57 AM CST (11/19)
Length of Visible Light 10h 44m
Length of Day
9h 44m
Waning Gibbous, 96% of the Moon is Illuminated
Nov 19
Waning Gibbous
Nov 25
Last Quarter
Dec 2
New
Dec 9
First Quarter
Dec 17
Full

Hourly Weather History & Observations

Time (CST) Temp. Windchill Dew Point Humidity Pressure Visibility Wind Dir Wind Speed Gust Speed Precip Events Conditions
12:15 AM 35.8 °F 31.9 °F 24.8 °F 64% 30.18 in 10.0 mi SE 4.6 mph - N/A   Clear
12:35 AM 35.6 °F 31.7 °F 24.8 °F 65% 30.18 in 10.0 mi SE 4.6 mph - N/A   Clear
12:55 AM 35.6 °F 32.8 °F 24.8 °F 65% 30.17 in 10.0 mi SE 3.5 mph - N/A   Clear
1:15 AM 34.9 °F 30.8 °F 24.4 °F 66% 30.17 in 10.0 mi SE 4.6 mph - N/A   Clear
1:35 AM 34.2 °F 31.2 °F 24.3 °F 67% 30.17 in 10.0 mi SSE 3.5 mph - N/A   Clear
1:55 AM 35.2 °F - 24.4 °F 65% 30.16 in 10.0 mi Calm Calm - N/A   Clear
2:15 AM 36.3 °F - 24.4 °F 62% 30.16 in 10.0 mi Calm Calm - N/A   Clear
2:35 AM 36.1 °F 33.5 °F 24.4 °F 63% 30.16 in 10.0 mi ESE 3.5 mph - N/A   Clear
2:55 AM 36.0 °F 33.3 °F 24.4 °F 63% 30.16 in 10.0 mi SE 3.5 mph - N/A   Clear
3:15 AM 35.6 °F 32.8 °F 24.4 °F 64% 30.16 in 10.0 mi SE 3.5 mph - N/A   Clear
3:35 AM 35.6 °F 31.7 °F 24.4 °F 64% 30.15 in 10.0 mi SE 4.6 mph - N/A   Clear
3:55 AM 35.1 °F - 24.3 °F 65% 30.15 in 10.0 mi Calm Calm - N/A   Clear
4:15 AM 33.8 °F - 24.1 °F 68% 30.15 in 10.0 mi Calm Calm - N/A   Clear
4:35 AM 33.8 °F - 24.4 °F 69% 30.14 in 10.0 mi Calm Calm - N/A   Clear
4:55 AM 32.9 °F - 24.3 °F 71% 30.14 in 10.0 mi Calm Calm - N/A   Clear
5:15 AM 34.3 °F - 24.4 °F 67% 30.14 in 10.0 mi Calm Calm - N/A   Clear
5:35 AM 33.1 °F - 24.4 °F 71% 30.14 in 10.0 mi Calm Calm - N/A   Clear
5:55 AM 32.7 °F - 24.4 °F 72% 30.13 in 10.0 mi Calm Calm - N/A   Clear
6:15 AM 32.4 °F - 24.6 °F 73% 30.13 in 10.0 mi Calm Calm - N/A   Clear
6:35 AM 33.3 °F - 24.6 °F 71% 30.13 in 10.0 mi Calm Calm - N/A   Clear
6:55 AM 33.4 °F 30.4 °F 25.0 °F 71% 30.13 in 10.0 mi ESE 3.5 mph - N/A   Clear
7:15 AM 34.9 °F 30.8 °F 25.3 °F 68% 30.12 in 10.0 mi ESE 4.6 mph - N/A   Clear
7:35 AM 34.9 °F 32.0 °F 25.5 °F 69% 30.12 in 10.0 mi ESE 3.5 mph - N/A   Clear
7:55 AM 35.4 °F 29.7 °F 25.7 °F 68% 30.11 in 10.0 mi SE 6.9 mph - N/A   Clear
8:15 AM 35.8 °F 30.9 °F 26.4 °F 69% 30.11 in 10.0 mi SE 5.8 mph - N/A   Clear
8:35 AM 37.9 °F 32.7 °F 27.3 °F 66% 30.10 in 10.0 mi ESE 6.9 mph - N/A   Clear
8:55 AM 40.1 °F 34.7 °F 27.9 °F 62% 30.09 in 10.0 mi SSE 8.1 mph - N/A   Clear
9:15 AM 42.4 °F 37.0 °F 28.2 °F 57% 30.09 in 10.0 mi SSE 9.2 mph - N/A   Clear
9:35 AM 44.6 °F 39.2 °F 28.2 °F 53% 30.09 in 10.0 mi SSE 10.4 mph 17.3 mph N/A   Clear
9:55 AM 46.6 °F - 28.6 °F 50% 30.08 in 10.0 mi SSE 11.5 mph 16.1 mph N/A   Clear
10:15 AM 48.4 °F - 28.6 °F 46% 30.07 in 10.0 mi SSE 11.5 mph 18.4 mph N/A   Clear
10:35 AM 50.5 °F - 29.1 °F 44% 30.07 in 10.0 mi SSE 11.5 mph 17.3 mph N/A   Clear
10:55 AM 52.5 °F - 30.0 °F 42% 30.05 in 10.0 mi South 12.7 mph 19.6 mph N/A   Clear
11:15 AM 54.3 °F - 31.3 °F 42% 30.04 in 10.0 mi SSE 17.3 mph 23.0 mph N/A   Clear
11:35 AM 55.9 °F - 31.3 °F 39% 30.02 in 10.0 mi SSE 17.3 mph 25.3 mph N/A   Clear
11:55 AM 57.0 °F - 31.6 °F 38% 30.01 in 10.0 mi SSE 13.8 mph 25.3 mph N/A   Clear
12:15 PM 58.1 °F - 31.6 °F 37% 30.00 in 10.0 mi SSE 15.0 mph 23.0 mph N/A   Clear
12:35 PM 59.4 °F - 32.0 °F 36% 29.98 in 10.0 mi South 13.8 mph 27.6 mph N/A   Clear
12:55 PM 60.1 °F - 32.0 °F 35% 29.96 in 10.0 mi South 15.0 mph 24.2 mph N/A   Clear
1:15 PM 60.8 °F - 31.3 °F 33% 29.94 in 10.0 mi South 19.6 mph 27.6 mph N/A   Clear
1:35 PM 60.6 °F - 31.6 °F 34% 29.93 in 10.0 mi South 13.8 mph 23.0 mph N/A   Mostly Cloudy
1:55 PM 61.2 °F - 30.0 °F 31% 29.92 in 10.0 mi SSE 19.6 mph 28.8 mph N/A   Overcast
2:15 PM 61.3 °F - 27.9 °F 28% 29.91 in 10.0 mi South 23.0 mph 29.9 mph N/A   Overcast
2:35 PM 61.3 °F - 26.6 °F 27% 29.90 in 10.0 mi South 18.4 mph 33.4 mph N/A   Overcast
2:55 PM 61.9 °F - 27.1 °F 27% 29.90 in 10.0 mi South 20.7 mph 31.1 mph N/A   Mostly Cloudy
3:15 PM 61.7 °F - 26.6 °F 26% 29.90 in 10.0 mi South 20.7 mph 33.4 mph N/A   Scattered Clouds
3:35 PM 60.8 °F - 26.6 °F 27% 29.89 in 10.0 mi SSE 23.0 mph 31.1 mph N/A   Scattered Clouds
3:55 PM 60.1 °F - 25.5 °F 27% 29.89 in 10.0 mi SSE 23.0 mph 29.9 mph N/A   Clear
4:15 PM 59.5 °F - 24.6 °F 26% 29.89 in 10.0 mi SSE 17.3 mph 29.9 mph N/A   Scattered Clouds
4:35 PM 58.6 °F - 24.1 °F 27% 29.88 in 10.0 mi SSE 18.4 mph 26.5 mph N/A   Clear
4:55 PM 57.4 °F - 24.1 °F 28% 29.88 in 10.0 mi SSE 15.0 mph 25.3 mph N/A   Clear
5:15 PM 56.3 °F - 23.5 °F 28% 29.88 in 10.0 mi SSE 13.8 mph 20.7 mph N/A   Clear
5:35 PM 56.3 °F - 22.1 °F 27% 29.88 in 10.0 mi SSE 16.1 mph 23.0 mph N/A   Clear
5:55 PM 55.2 °F - 23.0 °F 29% 29.89 in 10.0 mi SE 15.0 mph 21.9 mph N/A   Scattered Clouds
6:15 PM 55.4 °F - 23.5 °F 29% 29.89 in 10.0 mi SSE 17.3 mph 24.2 mph N/A   Overcast
6:35 PM 55.4 °F - 24.6 °F 30% 29.89 in 10.0 mi SSE 18.4 mph 25.3 mph N/A   Overcast
6:55 PM 55.0 °F - 25.7 °F 32% 29.89 in 10.0 mi SE 18.4 mph 25.3 mph N/A   Overcast
7:15 PM 54.9 °F - 26.4 °F 33% 29.89 in 10.0 mi SE 20.7 mph 26.5 mph N/A   Overcast
7:35 PM 54.7 °F - 26.6 °F 34% 29.89 in 10.0 mi SSE 13.8 mph 24.2 mph N/A   Overcast
7:55 PM 54.9 °F - 26.2 °F 33% 29.88 in 10.0 mi SSE 19.6 mph 27.6 mph N/A   Overcast
8:15 PM 55.6 °F - 25.5 °F 31% 29.88 in 10.0 mi SSE 25.3 mph 31.1 mph N/A   Overcast
8:35 PM 55.4 °F - 25.5 °F 32% 29.89 in 10.0 mi SSE 20.7 mph 31.1 mph N/A   Overcast
8:55 PM 54.9 °F - 25.7 °F 32% 29.89 in 10.0 mi SSE 21.9 mph 28.8 mph N/A   Overcast
9:15 PM 54.5 °F - 26.4 °F 34% 29.89 in 10.0 mi SSE 17.3 mph 26.5 mph N/A   Overcast
9:35 PM 54.1 °F - 26.4 °F 34% 29.89 in 10.0 mi SSE 21.9 mph 27.6 mph N/A   Overcast
9:55 PM 54.0 °F - 26.6 °F 35% 29.89 in 10.0 mi SSE 19.6 mph 27.6 mph N/A   Overcast
10:15 PM 53.6 °F - 27.0 °F 36% 29.89 in 10.0 mi SSE 19.6 mph 28.8 mph N/A   Overcast
10:35 PM 52.9 °F - 27.0 °F 37% 29.89 in 10.0 mi SSE 16.1 mph 24.2 mph N/A   Mostly Cloudy
10:55 PM 52.0 °F - 27.0 °F 38% 29.88 in 10.0 mi SSE 16.1 mph - N/A   Scattered Clouds
11:15 PM 51.6 °F - 27.0 °F 38% 29.88 in 10.0 mi SSE 17.3 mph 24.2 mph N/A   Clear
11:35 PM 50.9 °F - 27.1 °F 40% 29.88 in 10.0 mi SSE 15.0 mph 20.7 mph N/A   Clear
11:55 PM 50.5 °F - 27.3 °F 41% 29.88 in 10.0 mi SSE 13.8 mph 19.6 mph N/A   Clear